Location: Ethel Rock
(53.4667°N, 4.5667°W)
Time: 01:18:18
(UTC+00:00)

NOSS 3-2 (A) - Visible Passes

Search period start: 27 February 2021 00:00
Search period end: 09 March 2021 00:00
Orbit: 783 x 1425 km, 63.4° (Epoch: 25 February)

Date Brightness Start Highest point End Pass type
(mag) Time Alt. Az. Time Alt. Az. Time Alt. Az.
27 Feb 5.0 01:58:26 35° NNE 01:58:26 35° NNE 02:04:07 10° ENE visible
27 Feb 4.7 03:45:48 25° NW 03:49:42 46° NNE 03:57:19 10° E visible
27 Feb 4.0 05:34:05 10° NW 05:41:21 87° SW 05:49:43 10° SE visible
28 Feb 5.3 01:14:13 29° NNE 01:14:13 29° NNE 01:18:12 10° NE visible
28 Feb 4.8 03:01:35 32° NNW 03:03:52 41° NNE 03:11:10 10° E visible
28 Feb 4.1 04:48:56 11° NW 04:55:48 75° NE 05:04:05 10° SE visible
01 Mar 5.7 00:30:00 21° NE 00:30:00 21° NE 00:32:25 10° NE visible
01 Mar 4.8 02:17:21 37° N 02:17:58 38° N 02:25:02 10° ENE visible
01 Mar 4.4 04:04:44 18° NW 04:10:10 60° NNE 04:18:13 10° ESE visible
01 Mar 4.2 05:54:06 10° NW 06:01:19 58° SW 06:09:29 10° SSE visible
01 Mar 6.0 23:45:45 14° NE 23:45:45 14° NE 23:46:44 10° NE visible
02 Mar 5.0 01:33:08 35° NNE 01:33:08 35° NNE 01:38:57 10° ENE visible
02 Mar 4.6 03:20:30 26° NW 03:24:26 50° NNE 03:32:13 10° E visible
02 Mar 4.0 05:08:38 10° NW 05:15:55 77° SW 05:24:17 10° SE visible
03 Mar 5.3 00:48:53 28° NE 00:48:53 28° NE 00:52:59 10° ENE visible
03 Mar 4.8 02:36:15 33° NNW 02:38:38 43° NNE 02:46:06 10° E visible
03 Mar 4.0 04:23:37 12° NW 04:30:25 84° NE 04:38:46 10° SE visible
03 Mar 4.6 06:14:20 10° NW 06:21:02 36° WSW 06:28:28 10° S visible
04 Mar 5.6 00:04:38 21° NE 00:04:38 21° NE 00:07:09 10° NE visible
04 Mar 4.9 01:52:01 38° N 01:52:46 39° N 01:59:57 10° ENE visible
04 Mar 4.2 03:39:22 19° NW 03:44:50 67° NE 03:53:02 10° ESE visible
04 Mar 4.2 05:28:42 10° NW 05:35:47 49° SW 05:43:48 10° SSE visible
04 Mar 5.4 21:17:39 10° SSW 21:18:04 12° SSW 21:18:04 12° SSW visible
04 Mar 5.9 23:20:23 14° NE 23:20:23 14° NE 23:21:24 10° NE visible
05 Mar 5.0 01:07:44 36° NNE 01:07:44 36° NNE 01:13:51 10° ENE visible
05 Mar 4.4 02:55:06 26° NW 02:59:09 55° NNE 03:07:05 10° ESE visible
05 Mar 4.0 04:43:11 10° NW 04:50:27 67° SW 04:58:45 10° SSE visible
05 Mar 3.9 20:32:43 10° SSW 20:36:35 37° SSE 20:36:35 37° SSE visible
05 Mar 5.4 22:22:57 10° WSW 22:36:04 - NE 22:24:11 17° WSW visible
06 Mar 5.3 00:23:26 29° NE 00:23:26 29° NE 00:27:48 10° ENE visible
06 Mar 4.7 02:10:48 34° NNW 02:13:23 46° NNE 02:21:01 10° E visible
06 Mar 3.9 03:58:09 12° NW 04:05:01 86° SW 04:13:23 10° SE visible
06 Mar 4.8 05:49:04 10° WNW 05:55:25 30° WSW 06:02:25 10° S visible
06 Mar 4.1 19:48:11 10° S 19:53:04 30° ESE 19:55:28 23° E visible
06 Mar 3.5 21:37:24 10° SW 21:51:42 - NE 21:43:05 77° WNW visible
06 Mar 5.5 23:29:13 10° W 23:39:02 22° NE 23:41:54 10° NE visible
07 Mar 4.8 01:26:23 38° N 01:27:33 41° NNE 01:34:53 10° E visible
07 Mar 4.0 03:13:44 18° NW 03:19:28 76° NE 03:27:46 10° SE visible
07 Mar 4.4 05:03:20 10° NW 05:10:15 42° WSW 05:17:59 10° S visible
07 Mar 4.6 19:04:10 10° SSE 19:08:09 20° ESE 19:12:28 10° ENE visible
07 Mar 3.3 20:52:03 10° SW 20:57:49 79° SE 21:02:30 21° NE visible
07 Mar 4.5 22:43:23 10° W 22:49:15 45° NNW 22:56:06 10° NE visible
08 Mar 4.9 00:35:33 10° WNW 00:41:40 38° N 00:48:45 10° ENE visible
08 Mar 4.3 02:28:54 21° NW 02:33:51 61° NNE 02:41:56 10° ESE visible
08 Mar 4.0 04:17:47 10° NW 04:24:58 57° SW 04:33:08 10° SSE visible
08 Mar 5.3 06:10:12 10° WNW 06:14:45 17° WSW 06:19:36 10° SW visible
08 Mar 3.4 20:06:58 10° SSW 20:12:32 55° SE 20:18:59 10° NE visible
08 Mar 4.1 21:57:37 10° WSW 22:03:30 53° NNW 22:10:24 10° NE visible
